Barcelona, Spain

6:59 PM CEST on October 21, 2018 (GMT +0200)
El Prat

Weather History for LEBL - February, 2018

Change the Weather History Date:

Saturday, February 24, 2018

  Actual Average Record
Temperature  
Mean Temperature 44 °F -  
Max Temperature 54 °F 58 °F 66 °F (2007)
Min Temperature 35 °F 44 °F 35 °F (2018)
Degree Days  
Heating Degree Days 20    
Moisture  
Dew Point 33 °F    
Average Humidity 62    
Maximum Humidity 76    
Minimum Humidity 33    
Precipitation  
Precipitation 0.00 in 0.06 in - ()
Sea Level Pressure  
Sea Level Pressure 29.77 in    
Wind  
Wind Speed 9 mph ()    
Max Wind Speed 16 mph    
Max Gust Speed 25 mph    
Visibility 7.8 miles    
Events      
Averages and records for this station are not official NWS values.
T = Trace of Precipitation, MM = Missing Value Source: Averaged Metar Reports

Daily Weather History Graph

Daily Weather History Graph

Search for Another Location

Airport or City:

Astronomy

Feb. 24, 2018 Rise Set
Actual Time 7:34 AM CET 6:36 PM CET
Civil Twilight 7:06 AM CET 7:04 PM CET
Nautical Twilight 6:34 AM CET 7:36 PM CET
Astronomical Twilight 6:02 AM CET 8:08 PM CET
Moon 12:47 PM CET (2/24) 2:38 AM CET (2/24)
Length of Visible Light 11h 58m
Length of Day
11h 02m
Waxing Gibbous, 63% of the Moon is Illuminated
Feb 24
Waxing Gibbous
Mar 2
Full
Mar 9
Last Quarter
Mar 17
New
Mar 24
First Quarter

Hourly Weather History & Observations

Time (CET) Temp. Windchill Dew Point Humidity Pressure Visibility Wind Dir Wind Speed Gust Speed Precip Events Conditions
12:00 AM 41 °F - 33 °F 65% 29.76 in 8 mi North 4.6 mph - -  
12:00 AM 41.0 °F 35.8 °F 32.0 °F 70% 29.74 in 6.2 mi NW 8.1 mph - N/A   Partly Cloudy
12:30 AM 41.0 °F 35.2 °F 32.0 °F 70% 29.74 in 6.2 mi NW 9.2 mph - N/A   Partly Cloudy
1:00 AM 41 °F - 33 °F 65% 29.77 in 7 mi North 8.1 mph - -   Scattered Clouds
1:00 AM 41.0 °F 35.8 °F 33.8 °F 76% 29.74 in 6.2 mi NW 8.1 mph - N/A   Partly Cloudy
1:30 AM 41.0 °F 36.4 °F 32.0 °F 70% 29.74 in 6.2 mi NW 6.9 mph - N/A   Partly Cloudy
2:00 AM 40 °F - 32 °F 63% 29.76 in 7 mi North 10.4 mph - -  
2:00 AM 39.2 °F 33.6 °F 32.0 °F 75% 29.74 in 6.2 mi NNW 8.1 mph - N/A   Partly Cloudy
2:30 AM 39.2 °F 33.6 °F 32.0 °F 75% 29.74 in 6.2 mi NNW 8.1 mph - N/A   Partly Cloudy
3:00 AM 40 °F - 31 °F 59% 29.77 in 7 mi North 10.4 mph - -  
3:00 AM 39.2 °F 32.5 °F 30.2 °F 70% 29.74 in 6.2 mi NNW 10.4 mph - N/A   Partly Cloudy
3:30 AM 39.2 °F 32.5 °F 30.2 °F 70% 29.74 in 6.2 mi NW 10.4 mph - N/A   Partly Cloudy
4:00 AM 38 °F - 30 °F 64% 29.76 in 7 mi North 11.5 mph - -   Scattered Clouds
4:00 AM 37.4 °F 29.8 °F 30.2 °F 75% 29.74 in 6.2 mi NW 11.5 mph - N/A   Partly Cloudy
4:30 AM 37.4 °F 30.3 °F 30.2 °F 75% 29.74 in 6.2 mi NNW 10.4 mph - N/A   Partly Cloudy
5:00 AM 38 °F - 30 °F 64% 29.76 in 7 mi North 10.4 mph - -  
5:00 AM 37.4 °F 30.3 °F 30.2 °F 75% 29.74 in 6.2 mi NNW 10.4 mph - N/A   Partly Cloudy
5:30 AM 37.4 °F 30.8 °F 30.2 °F 75% 29.74 in 6.2 mi NNW 9.2 mph - N/A   Partly Cloudy
6:00 AM 38 °F - 29 °F 61% 29.76 in 6 mi North 13.8 mph - -  
6:00 AM 37.4 °F 30.3 °F 28.4 °F 70% 29.74 in 6.2 mi NNW 10.4 mph - N/A   Partly Cloudy
6:30 AM 35.6 °F 28.6 °F 28.4 °F 75% 29.74 in 6.2 mi NNW 9.2 mph - N/A   Partly Cloudy
7:00 AM 36 °F - 29 °F 66% 29.76 in 12 mi North 12.7 mph - -   Scattered Clouds
7:00 AM 35.6 °F 27.1 °F 28.4 °F 75% 29.74 in 6.2 mi NNW 12.7 mph - N/A   Partly Cloudy
7:30 AM 35.6 °F 28.0 °F 28.4 °F 75% 29.77 in 6.2 mi NNW 10.4 mph - N/A   Partly Cloudy
8:00 AM 37 °F - 29 °F 62% 29.77 in 6 mi North 11.5 mph - -   Scattered Clouds
8:00 AM 35.6 °F 27.5 °F 28.4 °F 75% 29.77 in 6.2 mi NNW 11.5 mph 23.0 mph N/A   Partly Cloudy
8:30 AM 35.6 °F 27.1 °F 28.4 °F 75% 29.77 in - NNW 12.7 mph 25.3 mph N/A   Clear
9:00 AM 38 °F - 29 °F 62% 29.78 in 6 mi North 15.0 mph - -  
9:00 AM 37.4 °F 29.3 °F 28.4 °F 70% 29.77 in 6.2 mi NNW 12.7 mph 25.3 mph N/A   Partly Cloudy
9:30 AM 39.2 °F 30.8 °F 30.2 °F 70% 29.77 in - NNW 15.0 mph - N/A   Clear
10:00 AM 43 °F - 30 °F 49% 29.79 in 7 mi North 11.5 mph - -   Clear
10:00 AM 42.8 °F 35.8 °F 30.2 °F 61% 29.77 in - NNW 13.8 mph - N/A   Clear
10:30 AM 44.6 °F 38.8 °F 30.2 °F 57% 29.77 in - NNW 11.5 mph - N/A   Clear
11:00 AM 49 °F - 30 °F 36% 29.79 in 7 mi North 8.1 mph - -  
11:00 AM 48.2 °F - 30.2 °F 50% 29.77 in - NNW 9.2 mph - N/A   Clear
11:30 AM 50.0 °F - 32.0 °F 50% 29.77 in 6.2 mi NW 4.6 mph - N/A   Partly Cloudy
12:00 PM 54 °F - 33 °F 33% 29.78 in 12 mi West 2.3 mph - -  
12:00 PM 51.8 °F - 32.0 °F 47% 29.77 in 6.2 mi WSW 3.5 mph - N/A   Partly Cloudy
12:30 PM 51.8 °F - 32.0 °F 47% 29.77 in 6.2 mi SSW 5.8 mph - N/A   Partly Cloudy
1:00 PM 54 °F - 34 °F 35% 29.78 in 9 mi SSW 9.2 mph - -   Scattered Clouds
1:00 PM 51.8 °F - 33.8 °F 50% 29.77 in 6.2 mi South 9.2 mph - N/A   Partly Cloudy
1:30 PM 51.8 °F - 35.6 °F 54% 29.77 in 6.2 mi South 9.2 mph - N/A   Partly Cloudy
2:00 PM 54 °F - 36 °F 40% 29.77 in 9 mi SW 13.8 mph - -  
2:00 PM 53.6 °F - 35.6 °F 51% 29.74 in 6.2 mi SSW 13.8 mph - N/A   Partly Cloudy
2:30 PM 53.6 °F - 35.6 °F 51% 29.74 in 6.2 mi SSW 13.8 mph - N/A   Partly Cloudy
3:00 PM 54 °F - 36 °F 38% 29.77 in 17 mi SW 16.1 mph - -  
3:00 PM 51.8 °F - 35.6 °F 54% 29.74 in 6.2 mi SSW 15.0 mph - N/A   Partly Cloudy
3:30 PM 53.6 °F - 35.6 °F 51% 29.74 in 6.2 mi SW 16.1 mph - N/A   Partly Cloudy
4:00 PM 54 °F - 37 °F 41% 29.77 in 16 mi SW 13.8 mph - -   Scattered Clouds
4:00 PM 51.8 °F - 37.4 °F 58% 29.74 in 6.2 mi SSW 13.8 mph - N/A   Partly Cloudy
4:30 PM 51.8 °F - 37.4 °F 58% 29.74 in 6.2 mi SW 12.7 mph - N/A   Partly Cloudy
5:00 PM 54 °F - 38 °F 44% 29.77 in 18 mi SW 11.5 mph - -  
5:00 PM 51.8 °F - 37.4 °F 58% 29.74 in 6.2 mi SW 12.7 mph - N/A   Partly Cloudy
5:30 PM 51.8 °F - 37.4 °F 58% 29.77 in - SW 12.7 mph - N/A   Clear
6:00 PM 52 °F - 38 °F 49% 29.77 in 19 mi WSW 10.4 mph - -  
6:00 PM 51.8 °F - 37.4 °F 58% 29.77 in - SW 12.7 mph - N/A   Clear
6:30 PM 50.0 °F - 37.4 °F 62% 29.77 in - SW 10.4 mph - N/A   Clear
7:00 PM 49 °F - 38 °F 55% 29.79 in 16 mi West 5.8 mph - -   Scattered Clouds
7:00 PM 48.2 °F - 37.4 °F 66% 29.77 in 6.2 mi WSW 8.1 mph - N/A   Partly Cloudy
7:30 PM 48.2 °F - 37.4 °F 66% 29.80 in 6.2 mi WSW 6.9 mph - N/A   Partly Cloudy
8:00 PM 49 °F - 38 °F 56% 29.81 in 15 mi West 3.5 mph - -  
8:00 PM 48.2 °F - 37.4 °F 66% 29.80 in 6.2 mi West 6.9 mph - N/A   Partly Cloudy
8:30 PM 48.2 °F - 37.4 °F 66% 29.80 in 6.2 mi WNW 3.5 mph - N/A   Partly Cloudy
9:00 PM 47 °F - 37 °F 60% 29.82 in 13 mi NNW 2.3 mph - -  
9:00 PM 46.4 °F 44.3 °F 37.4 °F 71% 29.80 in 6.2 mi WNW 4.6 mph - N/A   Partly Cloudy
9:30 PM 46.4 °F 44.3 °F 37.4 °F 71% 29.80 in 6.2 mi NW 4.6 mph - N/A   Partly Cloudy
10:00 PM 45 °F - 37 °F 66% 29.83 in 10 mi NNW 2.3 mph - -  
10:00 PM 44.6 °F 42.2 °F 37.4 °F 76% 29.80 in 6.2 mi NW 4.6 mph - N/A   Partly Cloudy
10:30 PM 44.6 °F 43.1 °F 37.4 °F 76% 29.83 in 6.2 mi NNW 3.5 mph - N/A   Partly Cloudy
11:00 PM 44.6 °F 42.2 °F 37.4 °F 76% 29.83 in 6.2 mi NW 4.6 mph - N/A   Partly Cloudy
11:30 PM 42.8 °F 39.3 °F 35.6 °F 76% 29.83 in 6.2 mi NW 5.8 mph - N/A   Partly Cloudy